Printer-friendly version

IAU Minor Planet Center

Minor Planet Center

MPEC 2008-G13 : 2008 GH

The following Minor Planet Electronic Circular may be linked-to from your own Web pages, but must not otherwise be redistributed electronically.


Read MPEC 2008-G12 Read MPEC 2008-G14


M.P.E.C. 2008-G13                                Issued 2008 Apr. 2, 15:49 UT

     The Minor Planet Electronic Circulars contain information on unusual
         minor planets and routine data on comets.  They are published
   on behalf of Commission 20 of the International Astronomical Union by the
          Minor Planet Center, Smithsonian Astrophysical Observatory,
                          Cambridge, MA 02138, U.S.A.

             Prepared using the Tamkin Foundation Computer Network

                              MPC@CFA.HARVARD.EDU
          URL http://www.cfa.harvard.edu/iau/mpc.html  ISSN 1523-6714

                                    2008 GH

Observations:
     K08G00H* C2008 04 01.29733 12 24 43.77 -14 46 34.0          20.4 V EG013G96
     K08G00H  C2008 04 01.30357 12 24 43.02 -14 46 16.5          21.8 V EG013G96
     K08G00H  C2008 04 01.30978 12 24 42.22 -14 45 56.8          21.7 V EG013G96
     K08G00H  C2008 04 01.31591 12 24 41.47 -14 45 38.9          20.6 V EG013G96
     K08G00H  C2008 04 01.34660 12 24 37.54 -14 44 06.6          20.8 V EG013G96
     K08G00H  C2008 04 01.35605 12 24 36.36 -14 43 37.8          20.9 V EG013G96
     K08G00H  C2008 04 01.36173 12 24 35.64 -14 43 21.1          20.8 V EG013G96
     K08G00H  C2008 04 02.20838012 23 11.74 -14 03 43.1          20.8 V EG013H55
     K08G00H  C2008 04 02.21505312 23 11.03 -14 03 25.4          21.0 V EG013H55
     K08G00H  C2008 04 02.22172612 23 10.30 -14 03 07.5          20.9 V EG013H55

Observer details:
G96 Mt. Lemmon Survey.  Observer A. Boattini.  Measurers E. C. Beshore,
    A. Boattini, G. J. Garradd, A. R. Gibbs, A. D. Grauer, R. E. Hill,
    R. A. Kowalski, S. M. Larson, R. H. McNaught.  1.5-m reflector + CCD.
H55 Astronomical Research Observatory, Charleston.  Observer R. Holmes.
    Measurers G. Yeon, L. Zou.  0.81-m f/4.0 astrograph + CCD.

Orbital elements:
2008 GH                                                  Earth MOID = 0.0231 AU
Epoch 2008 Mar. 15.0 TT = JDT 2454540.5                 MPC
M   9.31032              (2000.0)            P               Q
n   0.23330928     Peri.  132.42171     -0.05670650     -0.99812712
a   2.6132525      Node   320.81142     +0.90501105     -0.04168309
e   0.7777178      Incl.    2.08132     +0.42159147     -0.04477472
P   4.22           H   23.8           G   0.15
From 10 observations 2008 Apr. 1-2.

Ephemeris:
2008 GH                  a,e,i = 2.61, 0.78, 2                   q = 0.5809
Date    TT    R. A. (2000) Decl.     Delta      r     Elong.  Phase     V
2008 03 25    12 54.53   -26 53.1    0.0834   1.072   153.4    24.6    19.7
2008 03 26    12 46.81   -23 59.9    0.0948   1.086   157.3    20.8    19.9
2008 03 27    12 40.98   -21 42.5    0.106    1.099   160.5    17.7    20.1
2008 03 28    12 36.44   -19 51.2    0.118    1.112   163.0    15.2    20.2
2008 03 29    12 32.80   -18 19.4    0.130    1.125   165.1    13.2    20.4
2008 03 30    12 29.83   -17 02.6    0.143    1.138   166.7    11.7    20.6
2008 03 31    12 27.36   -15 57.3    0.155    1.151   167.9    10.5    20.7
2008 04 01    12 25.29   -15 01.2    0.168    1.164   168.7     9.7    20.9
2008 04 02    12 23.53   -14 12.5    0.180    1.177   169.2     9.2    21.0
2008 04 03    12 22.02   -13 29.8    0.193    1.190   169.4     8.9    21.2
2008 04 04    12 20.72   -12 52.1    0.206    1.203   169.2     8.9    21.4
2008 04 05    12 19.61   -12 18.6    0.219    1.216   168.9     9.1    21.5
2008 04 06    12 18.64   -11 48.7    0.232    1.229   168.3     9.5    21.7
2008 04 07    12 17.80   -11 21.8    0.245    1.242   167.7     9.9    21.9
2008 04 08    12 17.08   -10 57.5    0.259    1.255   166.9    10.4    22.0
2008 04 09    12 16.46   -10 35.5    0.272    1.267   166.1    11.0    22.2
2008 04 10    12 15.93   -10 15.5    0.286    1.280   165.2    11.6    22.3
2008 04 11    12 15.48   -09 57.3    0.299    1.293   164.2    12.2    22.5
2008 04 12    12 15.10   -09 40.6    0.313    1.306   163.3    12.7    22.6
2008 04 13    12 14.79   -09 25.4    0.327    1.318   162.3    13.3    22.7
2008 04 14    12 14.54   -09 11.4    0.341    1.331   161.4    13.9    22.9

Timothy B. Spahr             (C) Copyright 2008 MPC           M.P.E.C. 2008-G13

Read MPEC 2008-G12 Read MPEC 2008-G14


Our Web policy. Index to the CBAT/MPC/ICQ pages.


Valid HTML 4.01!